DECAYED

STARLINK-2392, 47811 (Decayed)

Orbit data source: Space-Track

STARLINK-2392, 47811 was a payload satellite owned by SpaceX/Seattle (US) in LEO that was launched on Thu, 11 Mar 2021 UTC via an FALCON 9 launch vehicle from the Air Force Eastern Test Range (AFETR). Payload-class satellites include a variety of spacecraft equipped with specific instruments for various scientific and technological missions. These include communications satellites like Starlink; space stations such as the ISS; scientific satellites like the Hubble; Earth observation satellites from companies like Planet Labs, Umbra, and HawkEye 360; GPS; miniature CubeSats for education and research; and military/defense satellites.

Not visible in the next 10 days
Identifier
47811, 2021-018AA
Orbit
Decayed
Country
Flag of USUS
Related business
Manufacturer
SpaceX/Seattle
Mission
Decayed Commercial Communications
Bus & Motor
STARLINK, Unknown motor
Mass
260 kg wet, ~248 kg dry
Launch date (UTC)
2021-03-11 (5 years ago)
Launch vehicle
FALCON 9
Launch site
Air Force Eastern Test Range (AFETR)
Object type
Payload
Rocket body
Debris
Shape & HBR
Box + 1 Pan, 10.1 m
Radar Cross Section
13.562 m², Large (>1 m²)

Expand to show TLE details & history
Last TLE update: 1 year ago

TLE from 1 year ago
0 STARLINK-2392
1 47811U 21018AA  25007.28475244  .98978549  12378-4  17956-2 0  9997
2 47811  53.0472 326.0079 0013355 183.4053 337.6606 16.46462032212530
Epoch: 2025-01-07T06:50Z
TLE epoch observation values (Epoch: 2025-01-07T06:50:02.610Z)
Latitude
15.08894°
Longitude
-75.23045°
Altitude
140.818 km
Speed
7.829 km/s
True Right ascension
08h 57m 29s
True Declination
14° 59' 40"
Sunlit
Object was in full shadow at epoch
Visualization orbit readout
Latitude
Unknown
Longitude
Unknown
Altitude
Unknown
Speed
Unknown
Apparent Right ascension
Unknown
Apparent Declination
Unknown
Sunlit
N/A
Visualization observer readout
Local Sidereal Time
23:26:55
Azimuth
Unknown
Elevation
Unknown
Doppler factor
Unknown
Orbital elements
Apogee altitude
157.674 km
Perigee altitude
140.24 km
Semi-major axis
6,527.094 km
Eccentricity
0.00134
Inclination
53.0472°
RAAN
326.0079°
Arg. of periapsis
183.4053°
True anomaly
337.60234°
Mean anomaly
337.6606°
Eccentric anomaly
337.63148°
Mean motion
4.11589 °/min
Orbital period
87.47 mins
BSTAR
0.0017956
Loading maneuver chart data...
Computing Atmospheric mass density...
Loading historical data...
Loading historical data...
Loading historical data...
Loading historical data...
Loading historical data...
Loading historical data...
Loading historical data...

Documentation

Showing up to 5 results
|